Starlink 3952

operational
NORAD ID: 52534 Int'l Des: 2022-051 Owner: SPXS Country: US Constellation: starlink
LEOCIRCULAR

Starlink 3952について

説明を読み込み中...

リアルタイム位置

3D地球を読み込み中...

次回通過

高度履歴

Altitude vs Time

uPlot chart will show altitude changes over time

軌道要素

1 52534U 22051B 25347.66791403 .00001269 00000-0 97800-4 0 9992
2 52534 53.2168 155.2867 0001369 88.7351 271.3798 15.08839372199193
Epoch: Dec 13, 2025 • Age: 20 hours

現在のステータス

高度 549.4 km
速度 7.59 km/s
衛星直下点 -29.90°S, 92.38°E
打ち上げ日 May 13, 2022
運用期間 3.5 years
タイプ internet

技術仕様

分類 Payload
質量 297.00 kg
乾燥質量 275.00 kg
総質量 297.00 kg
長さ 0.20 m
直径 2.80 m
スパン 9.00 m
形状 Box + pan
製造者 SPXS
バスタイプ Starlink
フェーズステータス In Orbit
所有者/国 SPXS/US

大規模コンステレーション

Loading constellations...